Погода в Радовище

Россия / Орловская область     53°16′32″N   35°19′27″E
темп.,
°C
ветер,
м/с
пор.,
м/с
влажн.,
%
обл.,
%
осадки,
мм/ч
давл.,
гПа
погр.,
м
8 декабря, ср
ср800:000с3799100 3.1 1013305
03:00−1ссв4897100 4.9 1015304
06:00−3ссв4996100 0.6 1015306
09:00−3ссв41094100 0.8 1016321
12:00−3ссв51094100 0.1 1017337
15:00−4ссв51293100 0.2 1016351
18:00−4св51293100 1.3 1017375
21:00−4св51193100 1.3 1017386
9 декабря, чт
чт900:00−5св51194100 0.0 1018354
03:00−5св51094100 0.1 1018340
06:00−5св51194100 0.1 1019349
09:00−5св51193100 0.1 1021361
12:00−4св41093100 0.0 1021345
15:00−4св51092100 0.1 1022342
18:00−4св51193100 0.0 1024356
21:00−5св51193100 0.0 1025332
10 декабря, пт
пт1000:00−6всв5119299 0.0 1026271
03:00−7всв4109397 0.0 1026232
06:00−7всв4109482 0.0 1026236
09:00−7всв4119466 0.0 1027252
12:00−5в4119344 0.0 1027297
15:00−4в5119397 0.0 1027309
18:00−5в5129334 0.0 1027324
21:00−5вюв5139387 0.0 1028347
11 декабря, сб
сб1100:00−4вюв51393100 0.0 1028366
03:00−4вюв51393100 0.0 1028375
06:00−4вюв51294100 0.0 1028377
09:00−4вюв51393100 0.0 1028407
12:00−3вюв61391100 0.0 1028423
15:00−2вюв61392100 0.0 1028442
18:00−2вюв61491100 0.0 1028426
21:00−1юв51491100 0.4 1029504
12 декабря, вс
вс1200:000юв51289100 0.1 1030429
03:00−1юв4119099 0.1 1031270
06:00−1юв41190100 0.0 1032288
09:00−1юв41189100 0.0 1032294
12:00−1юв51289100 0.0 1032360
15:00−1юв51387100 0.0 1031380
18:00−1юв51483100 0.0 1031386
21:00−2юв51579100 0.0 1030417